Kimball, NE

3:25 AM MDT on October 24, 2017 (GMT -0600)
Kimball Municipal-Arraj

Weather History for KIBM - May, 2012

Change the Weather History Date:

Wednesday, May 2, 2012

  Actual Average (KSNY) Record (KSNY)
Temperature  
Mean Temperature 58 °F -  
Max Temperature 71 °F 66 °F 84 °F (1949)
Min Temperature 46 °F 36 °F 17 °F (2005)
Degree Days  
Heating Degree Days 6    
Growing Degree Days 8 (Base 50)    
Moisture  
Dew Point 40 °F    
Average Humidity 55    
Maximum Humidity 77    
Minimum Humidity 27    
Precipitation  
Precipitation 0.04 in - - ()
Sea Level Pressure  
Sea Level Pressure 29.83 in    
Wind  
Wind Speed 7 mph (WNW)    
Max Wind Speed 16 mph    
Max Gust Speed 31 mph    
Visibility 10 miles    
Events Rain    
Averages and records for this station are not official NWS values.
T = Trace of Precipitation, MM = Missing Value Source: NWS Daily Summary

Daily Weather History Graph

Daily Weather History Graph

Search for Another Location

Airport or City:

Trip Planner

Search our weather history database for the weather conditions in past years. The results will help you decide how hot, cold, wet, or windy it might be!

Date:

Astronomy

May. 02, 2012 Rise Set
Actual Time 6:50 AM CDT 8:53 PM CDT
Civil Twilight 6:20 AM CDT 9:23 PM CDT
Nautical Twilight 5:43 AM CDT 10:00 PM CDT
Astronomical Twilight 5:03 AM CDT 10:41 PM CDT
Moon 5:06 PM CDT (5/2) 4:23 AM CDT (5/2)
Length of Visible Light 15h 03m
Length of Day
14h 03m
Waxing Gibbous, 83% of the Moon is Illuminated
May 2
Waxing Gibbous
May 5
Full
May 12
Last Quarter
May 20
New
May 28
First Quarter

Hourly Weather History & Observations

Time (CDT) Temp. Windchill Dew Point Humidity Pressure Visibility Wind Dir Wind Speed Gust Speed Precip Events Conditions
12:15 AM 56.5 °F - 30.7 °F 38% 29.79 in 10.0 mi NW 4.6 mph - N/A   Overcast
12:35 AM 56.3 °F - 32.2 °F 40% 29.79 in 10.0 mi WNW 5.8 mph - N/A   Overcast
12:55 AM 58.3 °F - 30.0 °F 34% 29.79 in 10.0 mi NW 10.4 mph - N/A   Mostly Cloudy
1:15 AM 59.4 °F - 30.0 °F 33% 29.78 in 10.0 mi NW 13.8 mph 20.7 mph N/A   Mostly Cloudy
1:55 AM 58.6 °F - 34.3 °F 40% 29.79 in 10.0 mi WNW 12.7 mph 25.3 mph N/A   Overcast
2:15 AM 57.9 °F - 34.3 °F 41% 29.79 in 10.0 mi NW 10.4 mph 23.0 mph N/A   Scattered Clouds
2:35 AM 55.9 °F - 34.3 °F 44% 29.78 in 10.0 mi NW 9.2 mph - N/A   Clear
2:55 AM 56.5 °F - 33.6 °F 42% 29.78 in 10.0 mi NW 10.4 mph - N/A   Scattered Clouds
3:15 AM 54.1 °F - 35.4 °F 49% 29.76 in 10.0 mi North 5.8 mph - N/A   Mostly Cloudy
3:35 AM 53.8 °F - 35.4 °F 50% 29.77 in 10.0 mi NNW 8.1 mph - N/A   Mostly Cloudy
3:55 AM 56.7 °F - 35.6 °F 45% 29.78 in 10.0 mi NW 6.9 mph - N/A   Mostly Cloudy
4:15 AM 54.3 °F - 36.3 °F 51% 29.77 in 10.0 mi NW 5.8 mph - N/A   Mostly Cloudy
4:35 AM 50.9 °F - 36.5 °F 58% 29.78 in 10.0 mi WNW 6.9 mph - N/A   Scattered Clouds
4:55 AM 50.7 °F - 36.5 °F 58% 29.78 in 10.0 mi NW 3.5 mph - N/A   Clear
5:15 AM 50.9 °F - 36.9 °F 59% 29.78 in 10.0 mi Calm Calm - N/A   Clear
5:35 AM 47.7 °F - 37.9 °F 69% 29.78 in 10.0 mi SSW 4.6 mph - N/A   Clear
5:55 AM 47.1 °F - 38.3 °F 71% 29.79 in 10.0 mi Calm Calm - N/A   Scattered Clouds
6:15 AM 46.6 °F - 39.2 °F 75% 29.79 in 10.0 mi Calm Calm - N/A   Mostly Cloudy
6:35 AM 46.8 °F - 39.0 °F 74% 29.79 in 10.0 mi SW 3.5 mph - N/A   Mostly Cloudy
6:55 AM 46.4 °F 45.2 °F 39.6 °F 77% 29.79 in 10.0 mi SW 3.5 mph - N/A   Scattered Clouds
7:15 AM 47.1 °F - 39.7 °F 76% 29.79 in 10.0 mi Calm Calm - N/A   Scattered Clouds
7:35 AM 48.4 °F - 41.2 °F 76% 29.80 in 10.0 mi SW 3.5 mph - N/A   Mostly Cloudy
7:55 AM 49.8 °F - 41.2 °F 72% 29.80 in 10.0 mi SW 4.6 mph - N/A   Mostly Cloudy
8:15 AM 50.5 °F - 41.5 °F 71% 29.82 in 10.0 mi West 3.5 mph - N/A   Scattered Clouds
8:35 AM 53.6 °F - 40.8 °F 62% 29.84 in 10.0 mi WNW 8.1 mph - N/A   Scattered Clouds
8:55 AM 54.5 °F - 40.8 °F 60% 29.85 in 10.0 mi NW 9.2 mph - N/A   Scattered Clouds
9:15 AM 55.2 °F - 40.3 °F 57% 29.86 in 10.0 mi NW 5.8 mph - N/A   Mostly Cloudy
9:35 AM 56.1 °F - 40.1 °F 55% 29.87 in 10.0 mi NW 5.8 mph - N/A   Mostly Cloudy
9:55 AM 57.0 °F - 40.1 °F 53% 29.86 in 10.0 mi NW 3.5 mph - N/A   Scattered Clouds
10:15 AM 58.3 °F - 40.3 °F 51% 29.86 in 10.0 mi NW 8.1 mph - N/A   Clear
10:35 AM 58.3 °F - 39.7 °F 50% 29.86 in 10.0 mi NW 3.5 mph - N/A   Clear
10:55 AM 58.3 °F - 39.6 °F 50% 29.87 in 10.0 mi Calm Calm - N/A   Clear
11:15 AM 59.0 °F - 41.2 °F 52% 29.86 in 10.0 mi Calm Calm - N/A   Clear
11:35 AM 60.3 °F - 41.2 °F 49% 29.87 in 10.0 mi WNW 3.5 mph - N/A   Clear
11:55 AM 60.3 °F - 39.6 °F 46% 29.86 in 10.0 mi Calm Calm - N/A   Clear
12:15 PM 61.7 °F - 40.1 °F 45% 29.87 in 10.0 mi WSW 3.5 mph - N/A   Clear
12:35 PM 61.3 °F - 40.1 °F 46% 29.86 in 10.0 mi East 3.5 mph - N/A   Clear
12:55 PM 62.8 °F - 41.5 °F 46% 29.86 in 10.0 mi NE 5.8 mph - N/A   Clear
1:15 PM 64.0 °F - 40.8 °F 43% 29.86 in 10.0 mi Calm Calm - N/A   Clear
1:35 PM 64.6 °F - 40.8 °F 42% 29.85 in 10.0 mi East 4.6 mph - N/A   Clear
1:55 PM 66.0 °F - 40.3 °F 39% 29.85 in 10.0 mi SE 3.5 mph - N/A   Clear
2:15 PM 66.4 °F - 40.8 °F 39% 29.83 in 10.0 mi SSE 6.9 mph - N/A   Scattered Clouds
2:35 PM 68.7 °F - 36.3 °F 30% 29.83 in 10.0 mi SSE 13.8 mph 17.3 mph N/A   Scattered Clouds
2:55 PM 69.8 °F - 36.1 °F 29% 29.82 in 10.0 mi SSE 10.4 mph 17.3 mph N/A   Clear
3:15 PM 71.2 °F - 35.8 °F 27% 29.81 in 10.0 mi South 12.7 mph 18.4 mph N/A   Clear
3:35 PM 70.2 °F - 35.6 °F 28% 29.81 in 10.0 mi South 8.1 mph 19.6 mph N/A   Clear
3:55 PM 70.3 °F - 36.7 °F 29% 29.81 in 10.0 mi South 10.4 mph - N/A   Clear
4:35 PM 69.8 °F - 37.4 °F 31% 29.80 in 10.0 mi ENE 5.8 mph - N/A   Mostly Cloudy
4:55 PM 68.2 °F - 37.2 °F 32% 29.80 in 10.0 mi North 8.1 mph - N/A   Overcast
5:35 PM 57.4 °F - 46.9 °F 68% 29.83 in 5.0 mi NW 15.0 mph 31.1 mph 0.01 in Rain Rain
5:55 PM 59.4 °F - 49.8 °F 71% 29.83 in 10.0 mi Calm Calm - 0.03 in Rain Light Rain
6:15 PM 61.7 °F - 50.7 °F 67% 29.82 in 10.0 mi East 8.1 mph - N/A   Scattered Clouds
6:35 PM 60.4 °F - 49.5 °F 67% 29.82 in 10.0 mi ENE 8.1 mph - N/A   Clear
6:55 PM 58.8 °F - 51.8 °F 77% 29.86 in 10.0 mi NW 10.4 mph - N/A   Mostly Cloudy
7:15 PM 58.6 °F - 51.1 °F 76% 29.87 in 10.0 mi NNW 11.5 mph - N/A Rain Light Rain
7:35 PM 56.5 °F - 48.9 °F 76% 29.88 in 10.0 mi NW 12.7 mph - N/A Rain Light Rain
7:55 PM 56.3 °F - 48.4 °F 75% 29.87 in 10.0 mi NW 10.4 mph - N/A   Overcast
8:15 PM 56.3 °F - 48.9 °F 76% 29.87 in 10.0 mi NNW 8.1 mph - N/A   Overcast
8:35 PM 58.6 °F - 45.5 °F 62% 29.86 in 10.0 mi NW 4.6 mph - N/A   Overcast
8:55 PM 57.4 °F - 46.2 °F 66% 29.89 in 10.0 mi West 15.0 mph 23.0 mph N/A   Overcast
9:35 PM 57.6 °F - 44.2 °F 61% 29.89 in 10.0 mi WNW 16.1 mph - N/A   Overcast
9:55 PM 56.8 °F - 44.6 °F 64% 29.89 in 10.0 mi West 9.2 mph - N/A Rain Light Rain
10:15 PM 56.5 °F - 43.9 °F 63% 29.90 in 10.0 mi West 13.8 mph 18.4 mph N/A   Overcast
10:35 PM 56.3 °F - 44.2 °F 64% 29.90 in 10.0 mi West 9.2 mph - N/A Rain Light Rain
10:55 PM 53.8 °F - 46.4 °F 76% 29.91 in 7.0 mi West 13.8 mph 17.3 mph 0.01 in Rain Light Rain
11:35 PM 53.4 °F - 45.5 °F 75% 29.90 in 10.0 mi WSW 10.4 mph - N/A   Overcast
11:55 PM 53.2 °F - 45.1 °F 74% 29.89 in 10.0 mi SSW 8.1 mph - N/A Rain Rain